Вернуться в каталог

STARLINK-35610

АктивенСвязьVLEO
NORAD 66428·PAYLOAD·🇺🇸 United States

Запущен Nov 11, 2025 с Cape Canaveral Space Force Station

Loading…

Ближайшие Пролёты (ближайшие 24 часа)

TLE

СвежийSource: CelesTrak SupGP

Эпоха: Sep 15, 2026, 02:44 UTC

1 66428C 25259G   26258.11437500  .00010040  00000+0  36353-3 0  2588
2 66428  43.0020 284.4934 0001315 263.8180  48.8761 15.27582702    13

Отслеживайте STARLINK-35610 в реальном времени с AllMySat

Download on the App Store